TimeMST,TemperatureF,Dew PointF,Humidity,Sea Level PressureIn,VisibilityMPH,Wind Direction,Wind SpeedMPH,Gust SpeedMPH,PrecipitationIn,Events,Conditions,WindDirDegrees,DateUTC
12:00 AM,10.4,6.8,85,30.43,3.0,Calm,Calm,-,N/A,,Overcast,0,2013-01-22 07:00:00
12:28 AM,10.4,6.8,85,30.43,3.0,Calm,Calm,-,N/A,,Overcast,0,2013-01-22 07:28:00
12:40 AM,10.4,6.8,85,30.43,2.0,Calm,Calm,-,N/A,,Haze,0,2013-01-22 07:40:00
12:45 AM,10.4,6.8,85,30.43,0.8,Calm,Calm,-,N/A,,Overcast,0,2013-01-22 07:45:00
12:53 AM,12.0,9.0,88,30.59,0.2,Calm,Calm,-,N/A,Fog,Light Freezing Fog,0,2013-01-22 07:53:00
1:19 AM,12.2,6.8,79,30.43,1.0,WNW,3.5,-,0.00,Snow,Light Snow,300,2013-01-22 08:19:00
1:50 AM,10.4,6.8,85,30.44,1.0,Calm,Calm,-,0.00,Snow,Light Snow,0,2013-01-22 08:50:00
1:53 AM,10.9,6.1,81,30.61,1.2,Calm,Calm,-,0.00,Snow,Light Snow,0,2013-01-22 08:53:00
2:07 AM,10.4,5.0,79,30.44,2.5,Calm,Calm,-,0.00,,Haze,0,2013-01-22 09:07:00
2:23 AM,8.6,3.2,79,30.45,3.0,SSE,3.5,-,0.00,,Haze,160,2013-01-22 09:23:00
2:33 AM,8.6,3.2,79,30.45,2.5,SSE,3.5,-,0.00,,Haze,160,2013-01-22 09:33:00
2:44 AM,10.4,5.0,79,30.45,3.0,Calm,Calm,-,0.00,,Haze,0,2013-01-22 09:44:00
2:53 AM,9.0,5.0,84,30.63,3.0,Calm,Calm,-,0.00,,Overcast,0,2013-01-22 09:53:00
3:00 AM,8.6,5.0,85,30.45,2.5,SSE,3.5,-,N/A,,Overcast,160,2013-01-22 10:00:00
3:38 AM,8.6,3.2,79,30.44,1.8,SSE,4.6,-,N/A,,Haze,160,2013-01-22 10:38:00
3:53 AM,9.0,3.9,80,30.62,1.5,SSE,4.6,-,0.00,Snow,Light Snow,150,2013-01-22 10:53:00
4:06 AM,8.6,3.2,79,30.44,2.0,Calm,Calm,-,0.00,,Haze,0,2013-01-22 11:06:00
4:51 AM,6.8,-0.4,72,30.43,3.0,SSE,3.5,-,0.00,,Haze,160,2013-01-22 11:51:00
4:53 AM,7.0,-0.0,73,30.62,3.0,SSE,4.6,-,0.00,,Haze,160,2013-01-22 11:53:00
5:09 AM,5.0,-0.4,78,30.42,3.0,SSE,3.5,-,N/A,,Haze,160,2013-01-22 12:09:00
5:29 AM,5.0,-0.4,78,30.41,1.8,South,5.8,-,N/A,,Haze,180,2013-01-22 12:29:00
5:45 AM,5.0,-0.4,78,30.41,2.5,Calm,Calm,-,N/A,,Haze,0,2013-01-22 12:45:00
5:53 AM,6.1,-0.0,76,30.63,2.5,Calm,Calm,-,N/A,,Haze,0,2013-01-22 12:53:00
5:59 AM,6.8,-0.4,72,30.41,3.0,Calm,Calm,-,N/A,,Haze,0,2013-01-22 12:59:00
6:21 AM,6.8,1.4,79,30.42,3.0,Calm,Calm,-,N/A,,Haze,0,2013-01-22 13:21:00
6:37 AM,6.8,-0.4,72,30.42,2.5,Calm,Calm,-,N/A,,Haze,0,2013-01-22 13:37:00
6:53 AM,7.0,1.0,77,30.62,2.5,Calm,Calm,-,N/A,,Haze,0,2013-01-22 13:53:00
7:10 AM,8.6,1.4,73,30.42,1.8,Calm,Calm,-,0.00,Snow,Light Snow,0,2013-01-22 14:10:00
7:18 AM,6.8,1.4,79,30.42,2.5,Calm,Calm,-,0.00,,Haze,0,2013-01-22 14:18:00
7:29 AM,6.8,-0.4,72,30.42,4.0,Calm,Calm,-,0.00,,Haze,0,2013-01-22 14:29:00
7:49 AM,6.8,1.4,79,30.42,2.5,Calm,Calm,-,0.00,,Haze,0,2013-01-22 14:49:00
7:53 AM,7.0,1.0,77,30.63,2.5,Calm,Calm,-,0.00,,Haze,0,2013-01-22 14:53:00
8:29 AM,5.0,-0.4,78,30.43,1.8,Calm,Calm,-,N/A,,Haze,0,2013-01-22 15:29:00
8:35 AM,6.8,1.4,79,30.44,2.0,Calm,Calm,-,N/A,,Haze,0,2013-01-22 15:35:00
8:53 AM,9.0,3.0,77,30.63,2.5,Calm,Calm,-,N/A,,Haze,0,2013-01-22 15:53:00
9:07 AM,8.6,3.2,79,30.44,1.5,Calm,Calm,-,N/A,,Haze,0,2013-01-22 16:07:00
9:33 AM,12.2,6.8,79,30.43,2.0,Calm,Calm,-,N/A,,Haze,0,2013-01-22 16:33:00
9:53 AM,14.0,9.0,80,30.62,2.0,Calm,Calm,-,N/A,,Haze,0,2013-01-22 16:53:00
10:11 AM,15.8,10.4,79,30.44,2.5,Calm,Calm,-,N/A,,Haze,0,2013-01-22 17:11:00
10:27 AM,17.6,14.0,86,30.43,3.0,Calm,Calm,-,N/A,,Clear,0,2013-01-22 17:27:00
10:53 AM,19.0,15.1,85,30.58,3.0,Calm,Calm,-,N/A,,Clear,0,2013-01-22 17:53:00
11:53 AM,15.1,9.0,77,30.60,4.0,NW,4.6,-,N/A,,Haze,320,2013-01-22 18:53:00
12:10 PM,15.8,8.6,73,30.42,3.0,NNW,4.6,-,N/A,,Haze,340,2013-01-22 19:10:00
12:53 PM,12.9,7.0,77,30.58,5.0,NW,5.8,-,N/A,,Haze,320,2013-01-22 19:53:00
1:53 PM,14.0,8.1,77,30.55,6.0,NNW,3.5,-,N/A,,Haze,340,2013-01-22 20:53:00
2:53 PM,12.9,7.0,77,30.55,5.0,WNW,4.6,-,N/A,,Haze,300,2013-01-22 21:53:00
3:53 PM,10.9,6.1,81,30.54,4.0,NW,4.6,-,N/A,,Haze,310,2013-01-22 22:53:00
4:53 PM,10.0,6.1,84,30.54,3.0,NW,3.5,-,N/A,,Clear,310,2013-01-22 23:53:00
5:53 PM,9.0,5.0,84,30.55,5.0,Calm,Calm,-,N/A,,Clear,0,2013-01-23 00:53:00
6:53 PM,8.1,3.9,83,30.55,4.0,Calm,Calm,-,N/A,,Clear,0,2013-01-23 01:53:00
7:53 PM,8.1,3.9,83,30.56,4.0,Calm,Calm,-,N/A,,Clear,0,2013-01-23 02:53:00
8:53 PM,5.0,1.0,84,30.57,5.0,South,3.5,-,N/A,,Clear,190,2013-01-23 03:53:00
9:27 PM,8.6,3.2,79,30.37,4.0,Calm,Calm,-,N/A,,Haze,0,2013-01-23 04:27:00
9:35 PM,8.6,5.0,85,30.37,3.0,Calm,Calm,-,N/A,,Mostly Cloudy,0,2013-01-23 04:35:00
9:44 PM,8.6,5.0,85,30.37,1.8,Calm,Calm,-,N/A,,Overcast,0,2013-01-23 04:44:00
9:53 PM,10.0,6.1,84,30.54,1.5,Calm,Calm,-,N/A,,Overcast,0,2013-01-23 04:53:00
10:13 PM,10.4,6.8,85,30.38,2.0,Calm,Calm,-,N/A,,Overcast,0,2013-01-23 05:13:00
10:53 PM,10.0,7.0,87,30.52,2.0,Calm,Calm,-,N/A,,Overcast,0,2013-01-23 05:53:00
11:28 PM,10.4,8.6,92,30.38,1.5,Calm,Calm,-,N/A,,Overcast,0,2013-01-23 06:28:00
11:48 PM,10.4,6.8,85,30.37,1.5,East,4.6,-,N/A,,Overcast,90,2013-01-23 06:48:00
11:53 PM,10.9,8.1,88,30.53,1.5,ENE,4.6,-,N/A,,Overcast,70,2013-01-23 06:53:00